RYR38EN LGIR-LIPE

Flight info

Callsign RYR38EN
Flight time N/A
Altitude 36000
Route EPALO M749 DIRMI UL613 KOR DCT IXONI DCT IPTES UL53 GARTA DCT OLGAT DCT NUCRE DCT PERAV DCT RUPAX DCT BAGNO DCT PELEG
Aircraft B738/M-SDE2E3FGHIRWXY/LB1

Departure

Time 2026-04-30 13:10
Airport Heraklion International Nikos Kazantzakis Airport (LGIR)

Arrival

Time N/A
Airport Bologna Guglielmo Marconi Airport (LIPE)
Time Latitude Longitude Altitude Speed Heading
2026-04-30 12:53 35.33819 25.17417 90 ft 0 kts 317°
2026-04-30 13:05 35.33850 25.17387 91 ft 12 kts 326°
2026-04-30 13:06 35.33911 25.17516 92 ft 12 kts 95°
2026-04-30 13:06 35.33904 25.17618 92 ft 12 kts 95°
2026-04-30 13:06 35.33897 25.17720 92 ft 12 kts 95°
2026-04-30 13:06 35.33888 25.17847 92 ft 16 kts 95°
2026-04-30 13:07 35.33877 25.18009 92 ft 24 kts 93°
2026-04-30 13:07 35.33860 25.18246 92 ft 32 kts 95°
2026-04-30 13:07 35.33841 25.18526 91 ft 33 kts 95°
2026-04-30 13:07 35.33829 25.18702 89 ft 16 kts 95°
2026-04-30 13:08 35.33819 25.18835 89 ft 15 kts 95°
2026-04-30 13:08 35.33815 25.18904 89 ft 3 kts 91°
2026-04-30 13:08 35.33828 25.18944 90 ft 10 kts 58°
2026-04-30 13:08 35.33889 25.19011 87 ft 14 kts 349°
2026-04-30 13:09 35.33912 25.18946 86 ft 5 kts 275°
2026-04-30 13:09 35.33916 25.18891 88 ft 15 kts 275°
2026-04-30 13:09 35.33946 25.18448 92 ft 89 kts 275°
2026-04-30 13:09 35.34017 25.17411 90 ft 153 kts 275°
2026-04-30 13:10 35.34130 25.15970 429 ft 180 kts 277°
2026-04-30 13:10 35.34267 25.14389 1232 ft 190 kts 279°
2026-04-30 13:10 35.34895 25.12938 1887 ft 206 kts 320°
2026-04-30 13:10 35.36234 25.12260 2442 ft 213 kts 351°
2026-04-30 13:11 35.37678 25.12040 3258 ft 210 kts 351°
2026-04-30 13:11 35.39203 25.11742 3518 ft 234 kts 348°
2026-04-30 13:11 35.40855 25.11345 3938 ft 247 kts 347°
2026-04-30 13:11 35.42549 25.10885 4562 ft 251 kts 346°
2026-04-30 13:12 35.44188 25.10152 5251 ft 251 kts 322°
2026-04-30 13:12 35.45501 25.08729 5870 ft 261 kts 315°
2026-04-30 13:12 35.46840 25.07144 6510 ft 271 kts 314°
2026-04-30 13:13 35.49536 25.03934 8245 ft 272 kts 314°
2026-04-30 13:13 35.50904 25.02317 9123 ft 274 kts 314°
2026-04-30 13:13 35.53688 24.99047 10560 ft 288 kts 315°
2026-04-30 13:14 35.55201 24.97276 10733 ft 313 kts 315°
2026-04-30 13:14 35.56837 24.95364 11007 ft 333 kts 315°
2026-04-30 13:14 35.60256 24.91384 12402 ft 341 kts 315°
2026-04-30 13:15 35.61984 24.89374 13185 ft 343 kts 315°
2026-04-30 13:15 35.65489 24.85298 14552 ft 351 kts 315°
2026-04-30 13:15 35.67271 24.83224 15196 ft 355 kts 315°
2026-04-30 13:16 35.69069 24.81131 15851 ft 358 kts 315°
2026-04-30 13:16 35.70885 24.79014 16488 ft 362 kts 315°
2026-04-30 13:16 35.72723 24.76871 17102 ft 366 kts 315°
2026-04-30 13:17 35.76448 24.72523 18356 ft 373 kts 315°
2026-04-30 13:17 35.78343 24.70309 18886 ft 377 kts 315°
2026-04-30 13:17 35.81518 24.66596 19801 ft 381 kts 314°
2026-04-30 13:18 35.84105 24.63568 20523 ft 385 kts 314°
2026-04-30 13:18 35.88026 24.58972 21561 ft 392 kts 314°
2026-04-30 13:18 35.90004 24.56651 22065 ft 395 kts 314°
2026-04-30 13:19 35.92003 24.54304 22584 ft 398 kts 314°
2026-04-30 13:19 35.94012 24.51945 23070 ft 401 kts 314°
2026-04-30 13:19 35.96037 24.49563 23557 ft 404 kts 314°
2026-04-30 13:19 35.98073 24.47167 23991 ft 406 kts 314°
2026-04-30 13:20 36.00121 24.44755 24426 ft 407 kts 314°
2026-04-30 13:20 36.02172 24.42338 24867 ft 408 kts 314°
2026-04-30 13:20 36.04202 24.39944 25277 ft 410 kts 314°
2026-04-30 13:20 36.06269 24.37504 25673 ft 412 kts 314°
2026-04-30 13:21 36.08344 24.35053 26066 ft 414 kts 314°
2026-04-30 13:21 36.10429 24.32588 26458 ft 415 kts 313°
2026-04-30 13:21 36.12518 24.30116 26843 ft 417 kts 313°
2026-04-30 13:22 36.16735 24.25121 27561 ft 421 kts 313°
2026-04-30 13:22 36.18853 24.22609 27916 ft 423 kts 313°
2026-04-30 13:22 36.23120 24.17544 28598 ft 427 kts 313°
2026-04-30 13:23 36.25264 24.14995 28932 ft 429 kts 313°
2026-04-30 13:23 36.29575 24.09865 29757 ft 428 kts 312°
2026-04-30 13:24 36.33836 24.04790 30693 ft 422 kts 312°
2026-04-30 13:24 36.38056 23.99753 31418 ft 420 kts 312°
2026-04-30 13:25 36.42245 23.94744 32208 ft 416 kts 312°
2026-04-30 13:25 36.46401 23.89766 32911 ft 414 kts 312°
2026-04-30 13:26 36.52597 23.82329 33921 ft 411 kts 312°